This is the latest recevied weather packets stored in our database for station/object N3TJJ-2. If no packets are shown the sender has not sent any weather packets the latest 10 day(s).
| Time | Temp. | Humidity | Pressure | Rain* | Wind** | Luminosity | Snow |
|---|---|---|---|---|---|---|---|
| 1788045175 | 23.89° C | 58% | 1023.8 hPa | 0 mm | - | - | - |
| 1788044818 | 23.89° C | 57% | 1023.7 hPa | 0 mm | - | - | - |
| 1788044444 | 24.44° C | 58% | 1023.7 hPa | 0 mm | - | - | - |
| 1788044098 | 24.44° C | 57% | 1023.7 hPa | 0 mm | - | - | - |
| 1788043735 | 24.44° C | 58% | 1023.9 hPa | 0 mm | - | - | - |
| 1788043370 | 25° C | 59% | 1023.9 hPa | 0 mm | - | - | - |
| 1788043021 | 25° C | 57% | 1024 hPa | 0 mm | - | - | - |
| 1788042646 | 25.56° C | 56% | 1023.9 hPa | 0 mm | - | - | - |
| 1788042283 | 26.67° C | 50% | 1023.9 hPa | 0 mm | - | - | - |
| 1788041944 | 26.67° C | 53% | 1023.8 hPa | 0 mm | - | - | - |
| 1788041568 | 26.11° C | 54% | 1023.9 hPa | 0 mm | - | - | - |
| 1788041204 | 25° C | 53% | 1023.9 hPa | 0 mm | - | - | - |
| 1788040844 | 25° C | 52% | 1023.9 hPa | 0 mm | - | - | - |
| 1788040488 | 25° C | 51% | 1023.7 hPa | 0 mm | - | - | - |
| 1788040128 | 25° C | 53% | 1023.7 hPa | 0 mm | - | - | - |
| 1788039768 | 25° C | 53% | 1023.7 hPa | 0 mm | - | - | - |
| 1788039404 | 25° C | 52% | 1023.8 hPa | 0 mm | - | - | - |
| 1788039046 | 25° C | 51% | 1023.9 hPa | 0 mm | - | - | - |
| 1788038683 | 25° C | 50% | 1023.7 hPa | 0 mm | - | - | - |
| 1788038325 | 25.56° C | 51% | 1023.7 hPa | 0 mm | - | - | - |
| 1788037964 | 25° C | 50% | 1023.6 hPa | 0 mm | - | - | - |
| 1788037609 | 25° C | 50% | 1023.7 hPa | 0 mm | - | - | - |
| 1788037244 | 25° C | 49% | 1023.6 hPa | 0 mm | - | - | - |
| 1788036885 | 25° C | 51% | 1023.7 hPa | 0 mm | - | - | - |
| 1788036530 | 25.56° C | 52% | 1023.9 hPa | 0 mm | - | - | - |
* Rain latest hour (hover to see other rain measurements)
** Current wind speed in m/s (hover to see current wind gust speed)